Regional Weather Roundup
Issued by NWS Newport/Morehead, NC

Current Version | Previous Version | Text Only | Print | Product List | Glossary On
Versions: 1 2 3 4 5 6 7 8 9 10 11 12 13 14 15 16 17 18 19 20 21 22 23 24 25 26 27 28 29 30 31 32 33 34 35 36 37 38 39 40 41 42 43 44 45 46 47 48 49 50
000
ASUS42 KMHX 270025
RWRMHX
WEATHER ROUNDUP FOR EASTERN NORTH CAROLINA
NATIONAL WEATHER SERVICE NEWPORT/MOREHEAD CITY NC
800 PM EDT WED APR 26 2017

NOTE: "FAIR" INDICATES FEW OR NO CLOUDS BELOW 12,000 FEET
WITH NO SIGNIFICANT WEATHER AND/OR OBSTRUCTIONS TO VISIBILITY

NCZ015>017-031-032-045>047-102-103-270100-
NORTH COAST

CITY           SKY/WX    TMP DP  RH WIND       PRES   REMARKS
EDENTON        CLEAR     69  65  85 CALM      29.83S
ELIZABETH CITY CLEAR     69  63  81 S5        29.83R
KITTY HAWK     CLEAR     65  60  84 CALM      29.83S
MANTEO         CLEAR     67  64  88 S3        29.85R

$$

NCZ045>047-081-094-103-104-270100-
CENTRAL COAST

CITY           SKY/WX    TMP DP  RH WIND       PRES   REMARKS
FRISCO         CLEAR     71  65  81 S5        29.85S HAZE

$$

NCZ095-097-098-100-101-270100-
SOUTHERN COAST

CITY           SKY/WX    TMP DP  RH WIND       PRES   REMARKS
BEAUFORT       CLEAR     70  66  87 SW10      29.85R
CEDAR ISLAND   NOT AVBL
JACKSONVILLE   PTCLDY    71  67  87 S8        29.83R
PINEY ISLAND   PTCLDY   N/A N/A N/A S8        29.84R
WILMINGTON     CLEAR     74  63  68 SW10      29.84R


$$

NCZ011>013-027>030-043-044-078>080-089-090>093-098-270100-
COASTAL PLAIN

CITY           SKY/WX    TMP DP  RH WIND       PRES   REMARKS
AHOSKIE          N/A     66  64  93 CALM      29.82R
CLINTON        PTCLDY    73  66  78 S5        29.83R
ELIZABETHTOWN  CLEAR     75  66  73 S5        29.83R
GOLDSBORO      PTCLDY    76  67  72 S3        29.80R
GREENVILLE     CLEAR     70  66  88 CALM      29.85R
HAVELOCK       PTCLDY    71  62  73 S8        29.85R
KENANSVILLE    PTCLDY    70  64  83 CALM      29.83R
KINSTON        MOCLDY    73  64  73 CALM      29.83R
NEW BERN       MOCLDY    73  64  73 S8        29.84R
RICHLANDS      MOCLDY    74  66  76 S7        29.84R
ROCKY MOUNT    CLEAR     69  66  90 CALM      29.80S
WASHINGTON     CLEAR     69  65  86 E3        29.82S
WHITEVILLE     CLEAR     73  64  72 SE3       29.83R

$$

AMZ130-135-150-152-154-156-158-170-250-252-270-ANZ085-086-088-633-658-670-270100-
MARINE OBSERVATIONS

STATION/POSITION TIME  TEMP    WIND        PRES    WAVE   SWELL
                       AIR SEA DIR/SP/G            HT/PER HT/PER
                 (UTC) (F)     (DEG/KT/KT) (MB)    (FT/S) (FT/S)
CHESAPEAKE LIGHT NOT AVBL
64 E VA BEACH    2350   58 58  150/  6/  6 1011.0    5/10   5/10
DUCK             0000   69 60  170/  5/  6 1009.6
2 E DUCK         0000      62                N/A     4/11   2/11
OREGON INLET     0000          130/  4/  7 1010.6
13E OREGON INLT  2348      61                N/A     5/ 9   5/ 9
HATTERAS CG      0000   70 69  210/  5/  6 1010.7
DIAMOND BUOY     2350   73 77  220/ 10/ 14 1010.8    5/ 9   5/ 9
CAPE LOOKOUT     0000   72     200/ 11/ 13 1010.6
BEAUFORT LAB     0000   71 67  210/ 10/ 14 1010.0
30 SE NEW RVR IN 0008   72     210/ 12/ 16 1011.0
30 SE NEW RVR IN 0013      72                N/A     4/ 8   2/11
27 SE WRIGHTSVLE 0008   73 72  200/ 12/ 17 1010.6
5 SE WRIGHTSVLE  0008   71 70  190/ 10/ 16 1010.6
225 S CAPE HAT   2350   74 75  230/ 12/ 14 1013.2    6/ 8   5/ 8
41 SE CHARLESTON 0010   73 73  200/  8/ 12 1011.3

$$




USA.gov is the U.S. government's official web portal to all federal, state and local government web resources and services.